Location: Newark
(11.4947°N, 0.1467°E)
Time: 02:14:27
(UTC+00:00)

Envisat - Pass Details

Date: 20 November 2019
Orbit: 764 x 766 km, 98.1° (Epoch: 06 December)

Event Time Altitude Azimuth Distance (km) Brightness Sun altitude
Rises 05:32:32 0° 41° (NE) 3,219 6.5 -6.7°
Reaches altitude 10° 05:35:43 10° 62° (ENE) 2,293 6.1 -6.0°
Maximum altitude 05:38:46 16° 99° (E) 1,899 6.6 -5.3°
Drops below altitude 10° 05:41:50 10° 137° (SE) 2,294 6.6 -4.6°
Sets 05:44:59 0° 158° (SSE) 3,219 6.9 -3.8°
